Ortonville, MN

4:03 AM CDT on March 23, 2017 (GMT -0500)
Ortonville Municipal-Martinson

Weather History for KVVV - August, 2014

Change the Weather History Date:

Monday, August 11, 2014

  Actual Average (KAQP) Record (KAQP)
Temperature  
Mean Temperature 65 °F -  
Max Temperature 73 °F 77 °F 87 °F (1999)
Min Temperature 57 °F 55 °F 42 °F (2004)
Growing Degree Days 15 (Base 50)    
Moisture  
Dew Point 53 °F    
Average Humidity 67    
Maximum Humidity 88    
Minimum Humidity 41    
Precipitation  
Precipitation 0.00 in - - ()
Sea Level Pressure  
Sea Level Pressure 30.13 in    
Wind  
Wind Speed 10 mph (NNW)    
Max Wind Speed 21 mph    
Max Gust Speed 26 mph    
Visibility 10 miles    
Events      
Averages and records for this station are not official NWS values.
T = Trace of Precipitation, MM = Missing Value Source: NWS Daily Summary

Daily Weather History Graph

Daily Weather History Graph

Search for Another Location

Airport or City:

Trip Planner

Search our weather history database for the weather conditions in past years. The results will help you decide how hot, cold, wet, or windy it might be!

Date:

Astronomy

Aug. 11, 2014 Rise Set
Actual Time 6:21 AM CDT 8:38 PM CDT
Civil Twilight 5:49 AM CDT 9:11 PM CDT
Nautical Twilight 5:08 AM CDT 9:51 PM CDT
Astronomical Twilight 4:23 AM CDT 10:36 PM CDT
Moon 9:00 PM CDT (8/11) 7:34 AM CDT (8/11)
Length of Visible Light 15h 22m
Length of Day
14h 16m
Full, 99% of the Moon is Illuminated
Aug 11
Full
Aug 17
Last Quarter
Aug 25
New
Sep 2
First Quarter
Sep 8
Full

Hourly Weather History & Observations

Time (CDT) Temp. Dew Point Humidity Pressure Visibility Wind Dir Wind Speed Gust Speed Precip Events Conditions
12:13 AM 62.6 °F 55.4 °F 77% 30.10 in 10.0 mi NNW 8.1 mph - N/A   Clear
12:34 AM 60.8 °F 53.6 °F 77% 30.10 in 10.0 mi NNW 6.9 mph - N/A   Clear
12:54 AM 60.8 °F 53.6 °F 77% 30.10 in 10.0 mi NW 8.1 mph - N/A   Clear
1:14 AM 60.8 °F 55.4 °F 82% 30.10 in 10.0 mi NNW 8.1 mph - N/A   Clear
1:34 AM 60.8 °F 55.4 °F 82% 30.10 in 10.0 mi NW 8.1 mph - N/A   Clear
1:53 AM 60.8 °F 55.4 °F 82% 30.10 in 10.0 mi NNW 6.9 mph - N/A   Clear
2:14 AM 60.8 °F 55.4 °F 82% 30.10 in 10.0 mi NW 9.2 mph - N/A   Clear
2:34 AM 60.8 °F 53.6 °F 77% 30.09 in 10.0 mi NNW 9.2 mph - N/A   Clear
2:53 AM 60.8 °F 53.6 °F 77% 30.09 in 10.0 mi NNW 9.2 mph - N/A   Clear
3:14 AM 59.0 °F 53.6 °F 82% 30.09 in 10.0 mi NW 9.2 mph - N/A   Clear
3:34 AM 59.0 °F 53.6 °F 82% 30.10 in 10.0 mi NNW 8.1 mph - N/A   Clear
3:53 AM 59.0 °F 53.6 °F 82% 30.10 in 10.0 mi NW 9.2 mph - N/A   Clear
4:14 AM 59.0 °F 53.6 °F 82% 30.10 in 10.0 mi NNW 10.4 mph 16.1 mph N/A   Clear
4:34 AM 59.0 °F 53.6 °F 82% 30.10 in 10.0 mi NW 8.1 mph 16.1 mph N/A   Clear
4:53 AM 57.2 °F 53.6 °F 88% 30.11 in 10.0 mi NW 9.2 mph - N/A   Scattered Clouds
5:14 AM 57.2 °F 53.6 °F 88% 30.11 in 10.0 mi NW 10.4 mph - N/A   Scattered Clouds
5:34 AM 57.2 °F 53.6 °F 88% 30.11 in 10.0 mi NNW 9.2 mph - N/A   Clear
5:53 AM 57.2 °F 53.6 °F 88% 30.11 in 10.0 mi NNW 10.4 mph - N/A   Clear
6:14 AM 57.2 °F 51.8 °F 82% 30.11 in 10.0 mi NW 9.2 mph - N/A   Clear
6:33 AM 57.2 °F 51.8 °F 82% 30.11 in 10.0 mi NW 9.2 mph - N/A   Clear
6:54 AM 57.2 °F 53.6 °F 88% 30.12 in 10.0 mi NW 10.4 mph - N/A   Clear
7:14 AM 57.2 °F 51.8 °F 82% 30.12 in 10.0 mi NW 9.2 mph 16.1 mph N/A   Clear
7:34 AM 57.2 °F 53.6 °F 88% 30.13 in 10.0 mi NW 11.5 mph 17.3 mph N/A   Clear
7:54 AM 59.0 °F 53.6 °F 82% 30.13 in 10.0 mi NNW 11.5 mph 17.3 mph N/A   Clear
8:14 AM 60.8 °F 53.6 °F 77% 30.14 in 10.0 mi NNW 13.8 mph - N/A   Clear
8:33 AM 60.8 °F 53.6 °F 77% 30.14 in 10.0 mi NNW 11.5 mph 17.3 mph N/A   Clear
8:54 AM 62.6 °F 55.4 °F 77% 30.15 in 10.0 mi NNW 13.8 mph - N/A   Clear
9:14 AM 62.6 °F 55.4 °F 77% 30.15 in 10.0 mi NNW 12.7 mph 21.9 mph N/A   Clear
9:33 AM 64.4 °F 55.4 °F 73% 30.15 in 10.0 mi North 13.8 mph 21.9 mph N/A   Clear
9:54 AM 66.2 °F 55.4 °F 68% 30.15 in 10.0 mi NNW 11.5 mph - N/A   Clear
10:14 AM 66.2 °F 55.4 °F 68% 30.16 in 10.0 mi NNW 13.8 mph 19.6 mph N/A   Clear
10:33 AM 68.0 °F 55.4 °F 64% 30.16 in 10.0 mi North 15.0 mph 19.6 mph N/A   Clear
10:54 AM 69.8 °F 55.4 °F 60% 30.16 in 10.0 mi North 17.3 mph - N/A   Clear
11:14 AM 69.8 °F 53.6 °F 56% 30.17 in 10.0 mi North 13.8 mph - N/A   Clear
11:33 AM 71.6 °F 53.6 °F 53% 30.17 in 10.0 mi North 20.7 mph - N/A   Clear
11:54 AM 71.6 °F 53.6 °F 53% 30.17 in 10.0 mi North 15.0 mph 23.0 mph N/A   Clear
12:13 PM 71.6 °F 53.6 °F 53% 30.17 in 10.0 mi NNW 16.1 mph 21.9 mph N/A   Scattered Clouds
12:33 PM 71.6 °F 53.6 °F 53% 30.17 in 10.0 mi North 17.3 mph 21.9 mph N/A   Scattered Clouds
12:54 PM 71.6 °F 55.4 °F 57% 30.17 in 10.0 mi North 16.1 mph 21.9 mph N/A   Scattered Clouds
1:14 PM 71.6 °F 53.6 °F 53% 30.17 in 10.0 mi North 16.1 mph 21.9 mph N/A   Scattered Clouds
1:34 PM 71.6 °F 51.8 °F 50% 30.16 in 10.0 mi North 17.3 mph 23.0 mph N/A   Scattered Clouds
1:53 PM 71.6 °F 50.0 °F 46% 30.16 in 10.0 mi North 17.3 mph 20.7 mph N/A   Clear
2:14 PM 73.4 °F 51.8 °F 47% 30.16 in 10.0 mi NNW 17.3 mph 24.2 mph N/A   Clear
2:33 PM 73.4 °F 51.8 °F 47% 30.16 in 10.0 mi NNW 16.1 mph 20.7 mph N/A   Clear
2:54 PM 73.4 °F 48.2 °F 41% 30.16 in 10.0 mi NNW 17.3 mph 26.5 mph N/A   Clear
3:13 PM 73.4 °F 50.0 °F 44% 30.16 in 10.0 mi NNW 15.0 mph 20.7 mph N/A   Clear
3:34 PM 73.4 °F 50.0 °F 44% 30.15 in 10.0 mi NNW 18.4 mph 24.2 mph N/A   Scattered Clouds
3:54 PM 73.4 °F 51.8 °F 47% 30.15 in 10.0 mi NNW 16.1 mph 23.0 mph N/A   Scattered Clouds
4:13 PM 73.4 °F 51.8 °F 47% 30.15 in 10.0 mi North 13.8 mph 19.6 mph N/A   Scattered Clouds
4:34 PM 73.4 °F 50.0 °F 44% 30.15 in 10.0 mi NNW 12.7 mph 23.0 mph N/A   Scattered Clouds
4:54 PM 73.4 °F 51.8 °F 47% 30.14 in 10.0 mi North 17.3 mph 24.2 mph N/A   Scattered Clouds
5:34 PM 73.4 °F 50.0 °F 44% 30.14 in 10.0 mi North 12.7 mph 19.6 mph N/A   Clear
5:54 PM 73.4 °F 50.0 °F 44% 30.14 in 10.0 mi North 13.8 mph 17.3 mph N/A   Scattered Clouds
6:14 PM 73.4 °F 50.0 °F 44% 30.14 in 10.0 mi NNW 13.8 mph 19.6 mph N/A   Mostly Cloudy
6:34 PM 71.6 °F 50.0 °F 46% 30.13 in 10.0 mi North 10.4 mph - N/A   Scattered Clouds
6:53 PM 71.6 °F 50.0 °F 46% 30.13 in 10.0 mi North 11.5 mph - N/A   Clear
7:14 PM 71.6 °F 51.8 °F 50% 30.13 in 10.0 mi North 9.2 mph - N/A   Clear
7:34 PM 69.8 °F 50.0 °F 49% 30.13 in 10.0 mi North 9.2 mph - N/A   Clear
7:53 PM 69.8 °F 50.0 °F 49% 30.13 in 10.0 mi North 8.1 mph - N/A   Clear
8:14 PM 66.2 °F 51.8 °F 60% 30.13 in 10.0 mi North 8.1 mph - N/A   Clear
8:34 PM 64.4 °F 51.8 °F 64% 30.13 in 10.0 mi North 6.9 mph - N/A   Clear
8:53 PM 62.6 °F 51.8 °F 68% 30.13 in 10.0 mi North 6.9 mph - N/A   Clear
9:14 PM 60.8 °F 51.8 °F 72% 30.14 in 10.0 mi North 6.9 mph - N/A   Clear
9:34 PM 60.8 °F 51.8 °F 72% 30.14 in 10.0 mi North 6.9 mph - N/A   Clear
9:54 PM 59.0 °F 51.8 °F 77% 30.14 in 10.0 mi North 8.1 mph - N/A   Clear
10:13 PM 57.2 °F 51.8 °F 82% 30.14 in 10.0 mi North 8.1 mph - N/A   Clear
10:34 PM 57.2 °F 51.8 °F 82% 30.15 in 10.0 mi North 8.1 mph - N/A   Clear
10:53 PM 57.2 °F 51.8 °F 82% 30.15 in 10.0 mi North 6.9 mph - N/A   Clear
11:14 PM 57.2 °F 50.0 °F 77% 30.15 in 10.0 mi NNW 5.8 mph - N/A   Clear
11:34 PM 57.2 °F 50.0 °F 77% 30.14 in 10.0 mi NNW 4.6 mph - N/A   Clear
11:53 PM 57.2 °F 50.0 °F 77% 30.14 in 10.0 mi NNW 5.8 mph - N/A   Clear